Temperature
18 18 18 18 17 17 17 17 17 17 17 17 17 16 16 16 16 16 16 16 16 16 16 16 16 16 16 16 16 16 16 16 16 16 16 17 17 17 17 16 16 16 16
18 18 18 18 17 17 17 17 17 17 17 17 16 16 16 16 16 16 16 16 16 16 16 16 16 16 16 16 16 16 16 16 16 16 16 16 16 16 16 16 16 16 16
18 18 18 17 17 17 17 17 17 17 16 16 16 16 16 16 16 16 16 16 16 16 15 15 15 15 15 15 15 15 15 15 15 15 16 16 16 16 15 16 15 15 15
18 17 17 17 17 17 17 16 16 16 16 16 16 16 16 16 16 16 16 16 15 15 15 15 15 15 15 15 15 15 15 15 15 15 15 15 15 15 15 15 15 15 15
17 17 17 17 17 17 16 16 16 16 16 16 16 16 15 15 15 15 15 15 15 15 15 15 15 15 15 15 15 15 14 14 14 14 14 14 14 14 14 14 14 14 14
17 17 17 17 16 16 16 16 15 15 15 15 15 15 15 15 15 15 15 15 15 15 15 14 14 14 14 14 14 14 14 14 14 14 14 13 13 13 13 13 13 13 13
17 17 17 17 16 16 16 16 15 15 15 15 15 14 14 14 14 14 14 14 14 14 14 14 14 14 14 13 13 13 13 13 13 12 12 12 12 12 12 12 12 12 12
17 17 16 16 16 16 15 15 15 14 14 14 14 14 14 14 14 14 14 14 14 13 13 13 13 13 13 12 12 12 12 12 12 11 11 11 11 11 11 11 11 11 11
16 16 16 16 16 15 15 15 14 14 14 13 13 13 13 13 13 13 13 13 13 12 12 12 12 11 11 11 11 11 11 11 11 10 10 10 10 10 10 10 10 10 10
15 15 15 15 15 15 14 14 14 13 13 13 13 12 12 12 12 12 12 12 12 11 11 11 11 10 10 10 10 10 10 10 10 9 9 9 9 9 9 9 9 8 8
15 15 15 14 14 14 14 13 13 12 12 12 12 11 11 11 11 11 11 11 11 11 10 10 10 9 9 9 9 9 8 8 8 8 8 8 8 8 8 8 7 7 7
14 14 14 13 13 13 13 12 12 12 12 11 11 11 10 10 10 10 10 10 10 10 9 9 9 8 8 8 8 7 7 7 7 7 7 7 7 7 7 6 6 6 6
14 13 13 12 12 12 12 11 11 11 11 10 10 10 10 10 10 9 9 9 9 9 8 8 8 7 7 7 7 7 7 7 6 6 6 6 6 6 6 6 6 6 6
13 12 12 12 11 11 11 11 11 10 10 10 10 10 9 9 9 8 8 8 8 8 8 7 7 7 7 6 6 6 6 5 5 5 5 5 5 5 5 4 4 5 5
12 12 11 11 11 11 10 10 10 10 10 10 9 9 9 8 8 7 7 7 7 7 7 7 6 6 6 6 5 5 5 4 4 4 4 3 3 3 3 3 3 3 3
12 11 11 11 11 10 10 9 9 9 9 9 8 8 8 7 7 7 7 7 6 6 6 6 5 5 5 5 4 4 4 3 3 3 3 2 2 2 2 2 2 2 2
11 11 11 10 10 10 10 10 9 8 8 8 7 7 7 6 6 6 6 6 6 6 5 5 4 4 4 4 3 3 3 2 2 2 2 2 2 1 1 1 1 1 1
11 11 10 10 10 9 9 9 9 8 8 7 7 6 6 6 6 6 5 5 5 5 4 4 4 3 3 3 2 2 2 2 2 1 1 1 1 1 1 1 1 0 0
10 10 10 10 9 9 9 8 8 8 7 7 6 6 6 5 5 5 5 5 4 4 4 3 3 3 2 2 2 2 1 1 1 1 1 1 1 1 0 0 0 0 0
10 10 10 9 9 9 8 8 8 7 7 6 6 6 5 5 5 4 4 4 4 3 3 3 2 2 2 2 1 1 1 1 1 1 1 0 0 0 0 0 0 -0 0
10 9 9 9 9 8 8 8 7 7 7 6 6 5 5 5 4 4 4 3 3 3 2 2 2 2 1 1 1 1 1 0 0 0 0 0 0 0 -0 -0 0 0 0
9 9 9 9 9 8 8 8 7 7 6 6 5 5 5 4 4 4 3 3 2 2 2 2 1 1 1 1 1 0 0 0 0 0 0 0 -0 -0 -0 -0 -0 -0 0
9 9 9 8 8 8 7 7 7 6 6 5 5 5 4 4 4 3 3 2 2 2 2 1 1 1 1 0 0 -0 -0 -0 -0 -0 -0 -0 -0 -0 -0 -0 -0 -0 -0
9 9 8 8 8 7 7 7 6 6 6 5 5 4 4 4 3 3 2 2 2 2 1 1 1 1 0 0 -0 -0 -0 -0 -0 -1 -1 -1 -1 -1 -1 -1 -1 -1 -0
9 8 8 8 7 7 7 6 6 6 5 5 4 4 4 3 3 3 2 2 2 1 1 1 1 0 0 -0 -0 -0 -0 -0 -1 -1 -1 -1 -1 -1 -1 -1 -1 -1 -1
8 8 8 7 7 7 6 6 5 5 5 4 4 4 3 3 3 2 2 2 2 1 1 1 0 0 0 -0 -0 -0 -0 -1 -1 -1 -1 -1 -1 -1 -1 -1 -1 -1 -1
Wind_Speed
10 9 8 8 7 7 7 7 7 7 8 9 8 7 6 5 5 5 4 3 4 3 2 2 3 2 1 1 0 1 1 3 3 4 3 2 2 3 3 9 13 13 15
9 8 8 7 7 7 7 7 7 7 7 7 7 7 6 6 5 6 5 4 4 4 4 3 3 2 2 2 1 1 1 2 3 3 3 2 2 3 3 4 7 10 12
8 8 7 7 8 8 7 7 7 7 6 6 6 6 5 4 4 4 4 4 4 4 3 3 3 2 2 2 2 2 2 1 2 2 3 2 2 2 2 3 3 4 7
8 7 8 8 8 8 7 7 7 7 6 6 5 5 4 4 3 2 3 3 3 2 2 2 1 2 2 2 2 2 2 1 1 1 2 2 2 2 1 2 3 3 4
8 7 7 7 7 7 7 7 7 7 6 6 5 5 4 3 2 2 2 3 3 2 2 1 1 2 1 0 0 1 1 1 1 1 2 2 2 2 2 2 3 4 4
8 7 7 7 8 8 9 9 8 8 7 7 6 6 6 4 4 5 4 3 3 3 2 2 4 6 6 5 5 4 3 1 1 1 2 2 3 2 2 2 2 2 4
8 7 7 8 8 8 9 9 9 8 8 9 8 8 7 6 7 7 8 6 6 5 5 4 5 6 7 5 6 8 7 8 4 1 2 2 2 3 3 3 3 3 4
8 8 7 8 9 9 9 10 10 9 9 9 8 8 8 8 9 9 9 8 7 7 6 6 6 6 7 6 5 6 6 7 6 4 2 2 3 3 2 2 3 4 4
9 8 8 9 10 10 11 11 10 11 11 9 8 9 9 9 10 10 9 7 8 8 7 7 7 6 9 9 7 6 7 6 9 11 9 7 7 7 4 2 3 3 3
9 9 9 10 11 11 11 11 10 11 12 11 11 9 10 9 12 11 9 6 7 6 5 6 9 8 9 9 6 6 6 6 7 8 8 10 10 11 10 4 2 2 2
11 11 11 11 11 11 11 11 11 11 12 11 11 10 10 10 12 13 11 6 5 5 5 4 5 9 10 10 7 5 5 4 4 5 6 6 6 6 7 8 5 2 2
13 13 12 11 11 11 12 11 11 11 12 11 11 9 8 8 10 12 14 12 8 6 4 3 4 8 10 10 8 8 10 7 5 5 6 6 6 6 6 6 8 7 4
14 13 12 12 11 10 11 11 10 9 9 8 8 8 6 6 8 12 13 12 11 6 4 6 8 10 10 9 11 12 9 6 6 6 5 5 4 4 4 5 6 8 8
15 13 11 12 12 11 9 8 8 8 8 8 7 7 6 5 6 6 6 6 8 7 6 8 10 11 10 9 9 8 6 5 5 4 4 4 5 5 5 5 5 5 5
14 13 12 12 12 12 11 8 8 6 7 9 6 6 6 5 4 5 5 5 4 5 6 7 7 7 7 7 6 6 6 6 6 5 4 5 5 5 5 5 4 4 4
13 11 10 10 10 10 11 11 15 11 14 13 11 9 6 6 7 10 10 11 11 11 9 7 6 6 6 5 5 5 5 5 5 4 4 5 5 5 5 5 5 4 5
12 11 9 9 9 8 9 10 9 9 12 11 11 11 9 9 11 12 12 14 13 12 9 6 5 4 4 4 4 4 4 4 4 4 4 5 5 5 5 6 6 6 6
11 11 10 8 8 7 7 7 8 8 6 4 6 8 9 10 11 12 12 11 8 7 5 4 4 3 3 4 4 4 4 4 4 5 5 5 5 5 6 7 7 7 7
9 8 8 8 7 7 7 6 6 6 6 4 3 4 7 8 11 12 10 7 5 4 4 3 3 3 3 3 4 4 4 4 4 5 5 6 6 6 7 7 8 10 9
8 11 10 8 7 7 7 7 6 6 5 4 4 3 3 5 5 6 5 4 4 4 3 3 2 3 3 3 3 3 4 4 5 5 5 6 6 6 7 9 8 9 8
7 8 11 9 7 7 7 7 6 6 5 4 3 3 7 6 5 5 4 3 3 3 2 2 2 2 2 2 2 3 3 3 4 5 6 6 7 7 7 7 8 9 9
6 6 6 7 7 7 7 6 6 6 6 6 4 5 9 6 5 4 3 3 2 2 2 2 1 1 1 1 1 2 2 4 5 6 6 7 7 7 7 7 8 9 9
7 8 7 7 7 9 8 7 6 6 5 5 5 4 5 4 4 4 3 2 2 2 3 4 3 2 4 4 4 2 2 4 5 6 6 7 7 7 7 8 10 10 10
7 8 7 7 7 7 7 7 6 6 6 5 5 5 4 4 4 3 2 1 2 4 4 5 4 4 5 5 5 6 7 9 10 9 9 7 8 7 7 8 9 10 10
7 7 7 7 7 7 7 6 6 6 6 5 5 4 4 4 3 2 2 2 3 4 5 5 5 5 4 4 6 8 10 12 12 12 11 8 7 8 8 9 9 10 10
7 7 7 6 6 6 7 6 6 5 5 5 4 4 4 4 3 2 2 3 3 3 3 4 4 4 3 5 7 9 11 13 15 15 13 9 7 7 8 8 10 9 10
Wind_Direction
184 185 181 181 181 178 179 183 180 174 167 168 169 167 168 171 168 167 179 179 192 217 224 213 241 238 251 276 259 112 147 166 213 270 271 286 266 248 229 227 231 231 235
180 178 179 176 173 174 178 177 167 162 162 162 161 163 171 175 177 179 193 194 199 216 229 224 249 245 249 254 238 239 220 193 193 255 289 306 284 256 248 240 239 238 239
172 175 175 175 172 172 171 161 152 149 146 145 147 154 158 160 167 178 187 190 192 201 207 210 235 229 253 260 248 247 251 234 190 213 266 284 291 297 290 277 266 267 265
169 174 174 174 170 163 155 147 142 137 138 139 140 146 148 146 146 156 167 176 178 174 173 176 200 197 232 249 252 259 260 276 263 246 270 286 289 303 322 289 294 289 286
168 176 177 163 154 149 144 138 131 130 133 128 121 108 102 106 102 128 145 152 152 135 108 83 65 69 64 152 260 265 252 260 297 293 286 304 310 328 312 298 285 294 289
168 170 158 148 142 140 136 131 126 121 112 106 101 96 82 70 63 81 110 109 107 103 89 63 55 42 33 38 40 44 54 44 313 286 282 284 286 293 300 306 309 323 302
142 143 143 140 139 138 137 127 122 116 105 95 93 92 82 56 61 74 86 91 84 76 72 62 52 39 34 31 40 42 35 30 25 310 294 295 301 305 313 313 302 278 270
123 124 128 127 126 125 122 119 114 107 101 96 92 89 82 61 67 77 83 84 81 72 68 70 67 42 31 35 46 39 28 20 15 15 334 308 315 309 288 280 280 293 288
114 114 114 117 117 117 117 114 111 106 99 92 85 79 76 61 61 72 81 85 78 68 64 60 59 49 32 42 51 43 30 15 20 24 26 20 11 2 357 8 359 355 320
109 107 105 107 111 113 112 109 106 105 103 96 84 74 73 65 56 65 77 85 82 71 58 49 49 47 39 46 53 47 32 2 360 11 17 17 16 17 18 23 0 345 320
106 103 100 98 102 107 107 107 108 105 102 96 89 75 66 62 55 58 67 78 88 80 60 39 25 30 37 44 52 51 26 10 12 20 19 16 15 17 18 19 16 8 336
105 101 98 97 102 103 104 105 105 107 104 99 92 78 60 51 52 53 58 64 72 77 59 29 21 35 45 47 49 38 36 39 35 33 30 22 15 6 358 1 6 6 346
102 98 95 92 90 94 102 105 104 102 104 101 95 86 65 47 42 46 51 53 54 63 47 42 53 55 51 48 45 46 44 44 42 38 26 8 351 343 345 350 356 355 348
101 97 95 93 87 80 80 89 101 104 107 103 97 93 77 53 37 29 31 38 41 46 44 48 56 57 56 49 45 43 41 42 44 36 12 354 351 357 359 355 349 347 344
103 100 96 94 95 87 78 68 83 81 113 116 112 111 99 73 31 40 52 45 44 52 62 58 53 48 47 42 37 34 30 29 28 17 14 5 360 359 350 345 344 346 340
110 108 107 105 102 102 99 80 55 72 84 91 102 106 88 87 67 61 63 68 72 77 76 66 57 52 49 44 37 25 20 18 11 11 10 4 357 352 343 338 339 334 323
118 119 117 115 114 112 111 111 100 65 64 76 83 83 82 74 66 65 71 74 69 74 75 70 63 54 45 37 30 24 11 2 5 11 5 354 347 342 336 330 328 324 316
112 118 122 124 124 123 121 121 121 119 104 65 47 63 72 69 66 65 72 74 58 56 72 76 67 55 46 35 25 20 14 10 11 7 359 349 343 337 331 326 322 320 317
109 115 119 123 126 126 123 118 113 112 110 100 65 45 57 65 64 64 70 79 80 63 59 61 63 62 50 40 31 28 24 14 3 355 347 340 334 331 326 321 318 317 316
106 115 117 119 120 120 121 120 119 119 115 107 99 91 74 74 68 56 59 74 80 73 65 62 61 70 62 46 36 31 21 6 353 345 333 328 324 321 317 316 315 314 312
102 109 112 114 119 122 124 126 129 125 120 113 103 108 117 104 101 90 78 73 78 78 75 74 72 72 60 51 43 32 16 347 334 326 321 317 316 315 312 310 310 310 310
105 102 103 108 110 112 116 118 120 118 118 115 102 94 100 97 98 94 81 69 70 76 91 98 88 76 81 87 71 35 356 334 327 324 318 314 312 310 310 310 311 312 311
104 103 98 99 103 107 105 108 113 115 116 116 116 107 99 99 101 97 86 70 55 55 65 87 97 79 68 64 52 33 341 316 307 307 309 310 311 310 309 308 308 312 313
108 109 107 104 103 104 107 107 109 114 115 111 108 108 110 112 107 99 86 52 55 53 63 78 88 92 84 59 29 7 349 335 327 316 306 298 301 303 305 307 307 307 310
105 108 109 111 113 113 111 111 111 113 112 112 112 109 110 111 107 95 66 62 67 70 72 78 83 88 76 36 6 352 347 345 342 334 322 304 295 298 302 305 308 311 312
101 106 110 115 117 119 121 121 120 121 119 119 119 118 117 116 113 98 76 79 87 87 84 80 79 84 52 11 353 348 348 346 344 341 334 314 302 305 313 312 312 315 316
Height
1498 1501 1504 1507 1510 1513 1516 1519 1522 1525 1527 1530 1533 1535 1537 1539 1541 1543 1544 1545 1547 1547 1548 1549 1550 1551 1551 1552 1552 1552 1552 1552 1551 1551 1551 1551 1551 1550 1551 1551 1551 1551 1551
1497 1499 1502 1504 1507 1510 1513 1517 1520 1523 1525 1528 1531 1534 1536 1537 1539 1541 1542 1543 1544 1545 1546 1546 1547 1548 1548 1549 1549 1549 1549 1549 1549 1548 1548 1548 1548 1547 1547 1547 1547 1547 1547
1496 1498 1500 1502 1505 1508 1511 1515 1518 1521 1523 1526 1529 1531 1533 1535 1537 1538 1540 1541 1542 1543 1543 1544 1544 1544 1545 1545 1546 1546 1546 1546 1546 1545 1544 1544 1544 1544 1543 1543 1543 1542 1542
1494 1496 1498 1500 1503 1506 1509 1513 1516 1519 1522 1524 1527 1529 1531 1533 1534 1535 1537 1538 1539 1540 1540 1541 1541 1541 1542 1542 1542 1542 1542 1542 1542 1541 1541 1540 1540 1539 1539 1538 1537 1537 1537
1492 1495 1497 1499 1502 1505 1507 1510 1513 1516 1519 1522 1524 1526 1528 1530 1531 1533 1534 1535 1536 1537 1537 1538 1538 1538 1538 1538 1538 1538 1538 1538 1538 1537 1536 1536 1535 1535 1534 1533 1532 1531 1530
1491 1494 1496 1499 1501 1503 1505 1508 1511 1514 1517 1519 1521 1524 1525 1527 1528 1530 1531 1532 1533 1534 1534 1535 1535 1535 1535 1535 1534 1534 1534 1534 1533 1533 1532 1531 1531 1530 1529 1528 1527 1526 1524
1490 1492 1495 1498 1500 1502 1505 1507 1510 1512 1515 1517 1519 1522 1523 1525 1526 1528 1529 1530 1530 1531 1532 1532 1532 1532 1532 1532 1531 1531 1531 1530 1530 1529 1528 1527 1526 1525 1524 1523 1522 1521 1519
1490 1492 1494 1497 1499 1502 1504 1506 1509 1511 1513 1516 1518 1520 1522 1523 1525 1526 1526 1527 1528 1528 1529 1529 1529 1529 1529 1529 1528 1528 1527 1527 1526 1525 1525 1523 1522 1521 1520 1519 1517 1516 1515
1490 1492 1494 1496 1498 1501 1503 1506 1508 1510 1513 1515 1518 1519 1521 1522 1524 1525 1525 1525 1526 1526 1527 1527 1527 1527 1527 1526 1526 1525 1525 1524 1523 1522 1521 1520 1519 1518 1516 1515 1513 1511 1509
1490 1492 1495 1497 1499 1501 1503 1506 1508 1510 1512 1515 1517 1519 1521 1522 1523 1524 1525 1525 1525 1525 1526 1526 1526 1526 1525 1525 1524 1523 1522 1521 1520 1519 1518 1517 1516 1514 1513 1511 1510 1508 1506
1491 1493 1495 1498 1500 1502 1504 1506 1509 1511 1513 1515 1517 1520 1521 1523 1523 1524 1524 1525 1525 1525 1525 1525 1525 1525 1524 1524 1523 1522 1521 1520 1519 1518 1516 1515 1514 1512 1511 1509 1507 1506 1504
1492 1494 1496 1499 1501 1504 1505 1508 1510 1512 1514 1516 1518 1520 1522 1523 1524 1524 1525 1525 1525 1525 1525 1525 1525 1525 1524 1523 1523 1522 1521 1520 1518 1517 1515 1513 1512 1510 1509 1507 1506 1504 1502
1493 1495 1498 1501 1503 1506 1508 1510 1513 1515 1516 1518 1520 1522 1523 1524 1524 1525 1525 1525 1525 1525 1525 1526 1525 1525 1524 1523 1523 1522 1520 1519 1517 1515 1514 1512 1510 1508 1506 1504 1502 1500 1498
1494 1498 1501 1503 1505 1508 1511 1514 1515 1517 1519 1521 1522 1523 1524 1525 1525 1525 1526 1526 1526 1526 1526 1526 1526 1526 1525 1524 1523 1521 1520 1518 1516 1515 1513 1511 1508 1506 1503 1500 1498 1495 1492
1498 1501 1504 1506 1509 1512 1514 1517 1519 1520 1522 1523 1524 1525 1525 1525 1526 1527 1527 1527 1527 1527 1527 1527 1527 1526 1525 1524 1522 1521 1519 1518 1516 1513 1511 1508 1506 1503 1500 1498 1495 1491 1488
1501 1504 1507 1510 1512 1515 1516 1519 1522 1523 1525 1526 1526 1527 1527 1528 1528 1528 1528 1528 1528 1528 1528 1527 1526 1526 1525 1523 1522 1520 1518 1516 1514 1512 1509 1507 1504 1500 1498 1495 1492 1489 1485
1504 1507 1511 1513 1515 1518 1520 1521 1523 1525 1527 1528 1529 1529 1530 1530 1530 1530 1530 1530 1530 1529 1528 1527 1527 1526 1525 1523 1522 1520 1518 1516 1513 1510 1508 1505 1502 1498 1495 1492 1489 1485 1482
1509 1511 1514 1516 1519 1521 1523 1524 1526 1527 1528 1530 1531 1532 1532 1532 1533 1532 1532 1531 1530 1530 1529 1528 1527 1526 1525 1523 1521 1519 1517 1515 1512 1509 1506 1503 1499 1496 1493 1489 1486 1483 1479
1512 1515 1517 1519 1521 1523 1525 1527 1528 1530 1531 1532 1533 1534 1534 1534 1534 1534 1533 1532 1531 1531 1530 1529 1528 1527 1525 1523 1521 1519 1516 1514 1511 1508 1504 1501 1497 1494 1490 1487 1483 1480 1477
1516 1518 1520 1522 1523 1525 1527 1529 1530 1531 1532 1533 1534 1535 1535 1535 1535 1534 1534 1533 1532 1531 1530 1529 1528 1526 1525 1523 1521 1518 1515 1512 1509 1506 1502 1498 1495 1491 1488 1484 1481 1477 1474
1519 1521 1523 1524 1526 1527 1529 1530 1531 1533 1533 1534 1535 1536 1536 1536 1535 1535 1534 1534 1533 1532 1530 1529 1528 1526 1524 1522 1520 1517 1514 1511 1507 1504 1500 1496 1492 1489 1485 1482 1478 1475 1471
1522 1524 1525 1526 1527 1529 1530 1532 1533 1534 1535 1536 1536 1537 1537 1537 1536 1536 1535 1534 1533 1532 1530 1529 1527 1526 1524 1521 1518 1515 1512 1509 1505 1501 1497 1493 1490 1486 1483 1479 1476 1472 1469
1524 1526 1527 1528 1530 1531 1532 1533 1534 1535 1536 1537 1537 1537 1537 1537 1536 1536 1535 1534 1533 1531 1530 1528 1526 1524 1522 1519 1517 1513 1510 1506 1502 1498 1494 1491 1487 1484 1480 1477 1473 1470 1466
1526 1528 1529 1530 1531 1532 1533 1535 1536 1536 1537 1537 1538 1538 1537 1537 1536 1536 1535 1534 1532 1531 1529 1527 1525 1523 1520 1518 1515 1511 1507 1504 1500 1496 1492 1488 1485 1482 1478 1474 1471 1467 1464
1528 1529 1530 1531 1532 1533 1535 1536 1536 1537 1537 1538 1538 1537 1537 1537 1536 1535 1534 1533 1531 1529 1528 1525 1523 1521 1518 1515 1512 1509 1505 1501 1497 1493 1490 1486 1483 1479 1476 1472 1469 1465 1461
1529 1530 1531 1532 1533 1534 1535 1536 1537 1537 1537 1537 1537 1537 1537 1536 1535 1535 1533 1532 1530 1528 1526 1524 1521 1519 1516 1513 1509 1506 1502 1499 1495 1491 1488 1484 1480 1477 1473 1469 1466 1463 1459